CUSAT 2 & FALCON 9 R/B (39271 NORAD) Tracking and Keplerian Element Data

This shows tracking and keplerian element data for the satellite.

Feedback or suggestion? Click here.




ElementValue
Catalog39271
NameCUSAT 2 & FALCON 9 R/B
Epoch Orbit35366
Epoch Day189.71425124
Epoch Year2020
RAAN245.2138
Inclination80.965
Eccentricity0.0588938
Argument of Perigee109.3216
Mean Anonmoly257.261
Mean Motion14.48224812
Decay Rate4.779E-05
L11 39271U 13055G 20189.71425124 .00004779 00000-0 11267-3 0 9999
L22 39271 80.9650 245.2138 0588938 109.3216 257.2610 14.48224812353662

Live tracking and technical data element details for CUSAT 2 & FALCON 9 R/B (NORAD 39271). CUSAT 2 & FALCON 9 R/B can be tracked NOW for your location showing map with azimuth and elevation plus other details from your city location.

Track the satellite on the map from your city or location and see movement details for azimuth, elevation, latitude, longitude, range, height, and movement on the map or in text.







IsCatalogInMostPopularTable: catalog: 39271, numindb: 552
Update: records affected: 1



GetName: 39271 CUSAT 2 & FALCON 9 R/B

Hit Count: updated at: Wed, 08 Jul 2020 23:25:13 GMT